Location: Brusselsch Zeekanaal
(50.8667°N, 4.3667°E)
Time: 03:18:57
(UTC+00:00)

Cosmos 2242 Rocket - Pass Details

Date: 08 November 2025
Orbit: 614 x 644 km, 82.5° (Epoch: 15 December)

Event Time Altitude Azimuth Distance (km) Brightness Sun altitude
Rises 05:28:28 0° 179° (S) 2,872 7.1 -12.5°
Reaches altitude 10° 05:30:41 10° 176° (S) 1,973 6.3 -12.2°
Maximum altitude 05:34:59 62° 96° (E) 701 4.2 -11.5°
Drops below altitude 10° 05:39:21 10° 16° (NNE) 1,999 6.2 -10.8°
Sets 05:41:37 0° 13° (NNE) 2,915 7.0 -10.5°
